Regional Weather Roundup
Issued by NWS

Home | Current Version | Previous Version | Text Only | Print | Product List | Glossary Off
Versions: 1 2 3 4 5 6 7 8 9 10 11 12 13 14 15 16 17 18 19 20 21 22 23 24 25 26 27 28 29 30 31 32 33 34 35 36 37 38 39 40 41 42 43 44 45 46 47 48 49 50

000
ASUS43 KFSD 160010
RWRSD

WEATHER ROUNDUP FOR SOUTH DAKOTA
NATIONAL WEATHER SERVICE SIOUX FALLS SD
600 PM CST MON JAN 15 2018

NOTE: "FAIR" INDICATES FEW OR NO CLOUDS BELOW 12,000 FEET WITH NO
SIGNIFICANT WEATHER AND/OR OBSTRUCTIONS TO VISIBILITY.


SDZ001>005-009-010-012>017-160100-
NORTHWEST AND NORTH CENTRAL SOUTH DAKOTA

CITY           SKY/WX    TMP DP  RH WIND       PRES   REMARKS
BUFFALO          N/A     -8 -14  74 NW8       30.63R WCI -24
FAITH            N/A     -8 -15  71 NW13      30.71S WCI -28
MOBRIDGE       CLEAR     -4 -14  62 N18       30.75R WCI -26
$$

SDZ012>016-024>037-041>051-057-063-072>074-160100-
SOUTHWEST AND SOUTH CENTRAL SOUTH DAKOTA

CITY           SKY/WX    TMP DP  RH WIND       PRES   REMARKS
RAPID CTY ARPT CLEAR     -1  -9  68 N10       30.67S WCI -17
PIERRE         CLEAR     -1 -11  62 NW17      30.76R WCI -22
CUSTER         CLEAR      1  -7  68 S3        30.41S
ELLSWORTH AFB  CLEAR     -1  -8  70 N12       30.66R WCI -18
PHILIP         CLEAR     -2  -8  76 NW9       30.77R WCI -18
PINE RIDGE     CLEAR      0  -8  69 N10       30.66S WCI -16
SPEARFISH        N/A     -4 -11  71 W8        30.62S WCI -19
WINNER         FAIR       2  -9  60 NW25G32   30.70R WCI -22
$$

SDZ004>011-016>023-039-040-160100-
NORTHEAST SOUTH DAKOTA

CITY           SKY/WX    TMP DP  RH WIND       PRES   REMARKS
ABERDEEN       MOCLDY    -4 -13  65 N23       30.75R WCI -29
WATERTOWN      CLOUDY    -8 -14  74 NW21G29   30.60R WCI -33
BROOKINGS      PTCLDY    -8 -14  74 MISG      30.58R
SISSETON         N/A     -6 -12  75 N21       30.71R WCI -30
$$

SDZ017-020-022-023-036>040-048>070-160100-
SOUTHEAST SOUTH DAKOTA

CITY           SKY/WX    TMP DP  RH WIND       PRES   REMARKS
SIOUX FALLS    CLOUDY    -4 -12  68 NW18      30.60R WCI -26
HURON          PTCLDY    -4  -9  79 N18       30.72R WCI -26
CHAMBERLAIN    PTCLDY     2  -9  61 NW16G28   30.72R WCI -18
MITCHELL       CLEAR     -2 -10  69 NW18      30.72R WCI -24
YANKTON        CLEAR     -3 -10  72 NW21G26   30.67R WCI -26
$$

ABBREVIATIONS USED IN REMARKS
   TC - TEMPERATURE IN CELSIUS
  WCI - WIND CHILL INDEX
   HX - HEAT INDEX
  VSB - VISIBILITY





USA.gov is the U.S. government's official web portal to all federal, state and local government web resources and services.